NOZ1551 LHBP-ENGM

Flight info

Callsign NOZ1551
Flight time N/A
Altitude 36000
Route BADOV DCT TURIS DCT MAKAL DCT DESEN DCT GOSOT DCT SABAK DCT LUNIP
Aircraft B738/M-SDE2E3FGHIRWXY/LB1

Departure

Time 2026-05-06 15:49
Airport Budapest Liszt Ferenc International Airport (LHBP)

Arrival

Time N/A
Airport Oslo-Gardermoen International Airport (ENGM)
Time Latitude Longitude Altitude Speed Heading
2026-05-06 15:14 47.43394 19.26655 457 ft 0 kts 222°
2026-05-06 15:41 47.43394 19.26656 457 ft 1 kts 222°
2026-05-06 15:41 47.43411 19.26679 457 ft 4 kts 222°
2026-05-06 15:41 47.43430 19.26705 454 ft 4 kts 236°
2026-05-06 15:42 47.43433 19.26724 455 ft 2 kts 312°
2026-05-06 15:42 47.43418 19.26749 454 ft 3 kts 312°
2026-05-06 15:42 47.43416 19.26752 453 ft 1 kts 312°
2026-05-06 15:45 47.43421 19.26745 454 ft 3 kts 312°
2026-05-06 15:45 47.43458 19.26685 456 ft 12 kts 312°
2026-05-06 15:46 47.43528 19.26571 457 ft 16 kts 312°
2026-05-06 15:46 47.43604 19.26449 457 ft 16 kts 312°
2026-05-06 15:46 47.43685 19.26352 457 ft 15 kts
2026-05-06 15:46 47.43775 19.26418 457 ft 15 kts 351°
2026-05-06 15:47 47.43850 19.26318 457 ft 16 kts 312°
2026-05-06 15:47 47.43924 19.26213 457 ft 15 kts 340°
2026-05-06 15:47 47.44026 19.26303 460 ft 19 kts 45°
2026-05-06 15:47 47.44075 19.26459 470 ft 9 kts 70°
2026-05-06 15:48 47.44060 19.26539 469 ft 8 kts 129°
2026-05-06 15:48 47.44036 19.26578 468 ft 4 kts 132°
2026-05-06 15:48 47.43959 19.26705 469 ft 48 kts 132°
2026-05-06 15:48 47.43539 19.27378 471 ft 127 kts 132°
2026-05-06 15:49 47.42786 19.28604 486 ft 189 kts 136°
2026-05-06 15:49 47.41910 19.30030 1472 ft 179 kts 136°
2026-05-06 15:49 47.41162 19.31343 2785 ft 159 kts 133°
2026-05-06 15:49 47.40618 19.32907 3270 ft 184 kts 118°
2026-05-06 15:50 47.40323 19.33902 3517 ft 195 kts 121°
2026-05-06 15:50 47.39646 19.35908 3503 ft 233 kts 122°
2026-05-06 15:50 47.38870 19.38081 3512 ft 248 kts 121°
2026-05-06 15:50 47.38352 19.40597 3629 ft 271 kts 94°
2026-05-06 15:51 47.38725 19.43381 4305 ft 285 kts 67°
2026-05-06 15:51 47.39847 19.45775 5319 ft 285 kts 48°
2026-05-06 15:51 47.41283 19.47851 6083 ft 293 kts 43°
2026-05-06 15:51 47.42813 19.49848 6922 ft 294 kts 41°
2026-05-06 15:52 47.44363 19.51857 7735 ft 298 kts 42°
2026-05-06 15:52 47.45916 19.53914 8491 ft 302 kts 42°
2026-05-06 15:52 47.47473 19.56021 9328 ft 305 kts 43°
2026-05-06 15:52 47.49038 19.58174 10071 ft 310 kts 43°
2026-05-06 15:53 47.50654 19.60420 10409 ft 330 kts 43°
2026-05-06 15:53 47.52387 19.62841 10615 ft 353 kts 43°
2026-05-06 15:53 47.54267 19.65256 11154 ft 362 kts 32°
2026-05-06 15:53 47.56593 19.66659 11862 ft 362 kts
2026-05-06 15:54 47.59083 19.66676 12640 ft 359 kts 346°
2026-05-06 15:54 47.61392 19.65346 13362 ft 357 kts 324°
2026-05-06 15:54 47.63242 19.62941 14012 ft 354 kts 306°
2026-05-06 15:54 47.64728 19.60013 14667 ft 357 kts 302°
2026-05-06 15:55 47.66174 19.56990 15297 ft 361 kts 302°
2026-05-06 15:55 47.67619 19.53924 15927 ft 365 kts 301°
2026-05-06 15:55 47.69083 19.50826 16562 ft 369 kts 302°
2026-05-06 15:55 47.70568 19.47703 17217 ft 372 kts 302°
2026-05-06 15:56 47.72071 19.44559 17856 ft 375 kts 302°
2026-05-06 15:56 47.73592 19.41388 18448 ft 379 kts 302°
2026-05-06 15:56 47.75131 19.38184 19000 ft 381 kts 302°
2026-05-06 15:56 47.76678 19.34970 19599 ft 383 kts 302°
2026-05-06 15:57 47.78234 19.31733 20161 ft 386 kts 302°
2026-05-06 15:57 47.79794 19.28486 20699 ft 388 kts 302°
2026-05-06 15:57 47.81368 19.25204 21257 ft 391 kts 302°
2026-05-06 15:57 47.82952 19.21897 21800 ft 393 kts 302°
2026-05-06 15:58 47.84544 19.18571 22336 ft 396 kts 302°
2026-05-06 15:58 47.86125 19.15263 22845 ft 399 kts 302°
2026-05-06 15:58 47.87707 19.11949 23363 ft 401 kts 302°
2026-05-06 15:58 47.89374 19.08452 23815 ft 403 kts 302°
2026-05-06 15:59 47.91003 19.05030 24257 ft 405 kts 302°
2026-05-06 15:59 47.92612 19.01646 24690 ft 407 kts 302°
2026-05-06 15:59 47.94251 18.98196 25106 ft 409 kts 302°
2026-05-06 15:59 47.95896 18.94727 25523 ft 410 kts 302°
2026-05-06 16:00 47.97547 18.91244 25901 ft 412 kts 302°
2026-05-06 16:00 47.99208 18.87732 26264 ft 415 kts 302°
2026-05-06 16:00 48.00930 18.84263 26675 ft 419 kts 307°
2026-05-06 16:00 48.02993 18.81142 27070 ft 424 kts 315°
2026-05-06 16:01 48.05375 18.78501 27431 ft 431 kts 324°
2026-05-06 16:01 48.07963 18.76189 27790 ft 434 kts 326°
2026-05-06 16:01 48.10587 18.73922 28129 ft 437 kts 326°
2026-05-06 16:01 48.13224 18.71648 28463 ft 439 kts 326°
2026-05-06 16:02 48.15874 18.69340 28796 ft 441 kts 325°
2026-05-06 16:02 48.18520 18.67007 29138 ft 443 kts 325°
2026-05-06 16:02 48.21183 18.64641 29463 ft 445 kts 325°
2026-05-06 16:02 48.23843 18.62265 29767 ft 447 kts 325°
2026-05-06 16:03 48.26516 18.59872 30040 ft 449 kts 325°
2026-05-06 16:03 48.29201 18.57467 30369 ft 449 kts 324°
2026-05-06 16:03 48.31874 18.55074 30840 ft 444 kts 324°
2026-05-06 16:03 48.34514 18.52727 31367 ft 440 kts 326°
2026-05-06 16:04 48.37287 18.50754 31819 ft 442 kts 334°
2026-05-06 16:04 48.40247 18.49414 32173 ft 446 kts 340°
2026-05-06 16:04 48.43254 18.48270 32480 ft 446 kts 340°
2026-05-06 16:04 48.46262 18.47167 32821 ft 445 kts 343°
2026-05-06 16:05 48.49263 18.46064 33193 ft 442 kts 340°
2026-05-06 16:05 48.52242 18.44955 33604 ft 440 kts 339°
2026-05-06 16:05 48.55202 18.43836 33978 ft 437 kts 339°
2026-05-06 16:05 48.58152 18.42706 34214 ft 437 kts 339°
2026-05-06 16:06 48.61105 18.41562 34361 ft 440 kts 339°
2026-05-06 16:06 48.64068 18.40408 34553 ft 440 kts 339°
2026-05-06 16:06 48.67037 18.39251 34796 ft 440 kts 339°
2026-05-06 16:06 48.70002 18.38095 35018 ft 440 kts 339°
2026-05-06 16:07 48.72754 18.37021 35182 ft 441 kts 339°
2026-05-06 16:07 48.75728 18.35859 35357 ft 442 kts 339°
2026-05-06 16:07 48.78708 18.34694 35583 ft 442 kts 339°
2026-05-06 16:07 48.81685 18.33530 35801 ft 441 kts 339°
2026-05-06 16:08 48.87671 18.31179 35849 ft 448 kts 339°
2026-05-06 16:08 48.93768 18.28779 35857 ft 456 kts 340°
2026-05-06 16:09 48.99973 18.26333 35846 ft 463 kts 340°
2026-05-06 16:09 49.06206 18.23874 35835 ft 468 kts 340°
2026-05-06 16:10 49.12518 18.21376 35840 ft 471 kts 340°
2026-05-06 16:10 49.18917 18.18836 35828 ft 472 kts 340°
2026-05-06 16:11 49.25219 18.16265 35832 ft 470 kts 336°
2026-05-06 16:11 49.31273 18.12694 35824 ft 465 kts 332°
2026-05-06 16:12 49.37227 18.08845 35822 ft 464 kts 331°
2026-05-06 16:12 49.43190 18.05032 35810 ft 464 kts 332°
2026-05-06 16:13 49.49157 18.01279 35819 ft 463 kts 332°
2026-05-06 16:13 49.55118 17.97545 35799 ft 463 kts 332°
2026-05-06 16:14 49.61079 17.93803 35808 ft 462 kts 332°
2026-05-06 16:14 49.67029 17.90055 35803 ft 462 kts 332°
2026-05-06 16:15 49.72982 17.86294 35804 ft 462 kts 332°
2026-05-06 16:15 49.78922 17.82530 35806 ft 462 kts 332°
2026-05-06 16:16 49.84870 17.78752 35816 ft 462 kts 332°
2026-05-06 16:16 49.90817 17.74964 35814 ft 462 kts 332°
2026-05-06 16:17 49.96763 17.71166 35809 ft 463 kts 332°
2026-05-06 16:17 50.02720 17.67351 35805 ft 463 kts 332°
2026-05-06 16:18 50.08686 17.63521 35802 ft 464 kts 332°
2026-05-06 16:18 50.14655 17.59678 35797 ft 465 kts 332°
2026-05-06 16:19 50.20590 17.55846 35802 ft 465 kts 332°
2026-05-06 16:19 50.26568 17.51978 35793 ft 465 kts 332°
2026-05-06 16:20 50.32674 17.48501 35791 ft 469 kts 336°
2026-05-06 16:20 50.38879 17.45317 35784 ft 469 kts 336°
2026-05-06 16:21 50.45085 17.42122 35787 ft 469 kts 336°
2026-05-06 16:21 50.51271 17.38870 35775 ft 469 kts 336°
2026-05-06 16:22 50.57464 17.35577 35777 ft 470 kts 336°
2026-05-06 16:22 50.63659 17.32266 35777 ft 470 kts 336°
2026-05-06 16:23 50.69845 17.28952 35775 ft 470 kts 336°
2026-05-06 16:23 50.76035 17.25629 35770 ft 470 kts 336°
2026-05-06 16:24 50.82231 17.22293 35774 ft 471 kts 336°
2026-05-06 16:24 50.88427 17.18949 35759 ft 470 kts 336°
2026-05-06 16:25 50.94618 17.15599 35758 ft 470 kts 336°
2026-05-06 16:25 51.00800 17.12243 35757 ft 469 kts 336°
2026-05-06 16:26 51.06974 17.08881 35755 ft 469 kts 336°
2026-05-06 16:26 51.13147 17.05511 35748 ft 469 kts 336°
2026-05-06 16:27 51.19312 17.02136 35752 ft 469 kts 336°
2026-05-06 16:27 51.25481 16.98749 35754 ft 469 kts 336°
2026-05-06 16:28 51.31648 16.95353 35756 ft 469 kts 336°
2026-05-06 16:28 51.37815 16.91949 35760 ft 469 kts 336°
2026-05-06 16:29 51.43973 16.88539 35768 ft 468 kts 336°
2026-05-06 16:29 51.50127 16.85121 35766 ft 468 kts 336°
2026-05-06 16:30 51.55238 16.82276 35768 ft 468 kts 336°
2026-05-06 16:30 51.62424 16.78263 35770 ft 467 kts 336°
2026-05-06 16:31 51.68570 16.74821 35764 ft 467 kts 336°
2026-05-06 16:31 51.74705 16.71374 35774 ft 467 kts 336°